Location: Antichan
(42.9728°N, 0.6667°E)
Time: 08:46:36
(UTC+00:00)

Meteor 1-18 Rocket - Pass Details

Date: 15 August 2020
Orbit: 836 x 910 km, 81.2° (Epoch: 18 September)

Event Time Altitude Azimuth Distance (km) Brightness Sun altitude
Rises 20:23:02 0° 354° (N) 3,408 8.0 -14.5°
Reaches altitude 10° 20:25:33 10° 360° (N) 2,464 7.1 -14.8°
Maximum altitude 20:30:57 50° 75° (ENE) 1,057 4.5 -15.6°
Enters shadow 20:34:00 25° 140° (SE) 1,642 5.1 -16.1°
